Le nostre stazioni meteo in Italia

Pubblicità
Il mio iltempo24.it
Arezzo, Italia (16172): Temperatura & dewpoint: 19.05.2019 08:00:00 - 25.05.2019 08:00:00 (CEST)Arezzo, Italia (16172): velocità del vento: 19.05.2019 08:00:00 - 25.05.2019 08:00:00 (CEST)Arezzo, Italia (16172): direzione del vento: 19.05.2019 08:00:00 - 25.05.2019 08:00:00 (CEST)Arezzo, Italia (16172): reduced air pressure: 19.05.2019 08:00:00 - 25.05.2019 08:00:00 (CEST)Arezzo, Italia (16172): visibility: 19.05.2019 08:00:00 - 25.05.2019 08:00:00 (CEST)
Data & Tempo tt [°C] td [°C] ff [km/h] ff [kn] dd ppp [hPa] vv [km]
25.05.2019 08:00:00 - - - - - - -
25.05.2019 07:00:00 - - - - - - -
25.05.2019 06:00:00 - - - - - - -
25.05.2019 05:00:00 - - - - - - -
25.05.2019 04:00:00 - - - - - - -
25.05.2019 03:00:00 - - - - - - -
25.05.2019 02:00:00 - - - - - - -
25.05.2019 01:00:00 - - - - - - -
25.05.2019 00:00:00 - - - - - - -
24.05.2019 23:00:00 - - - - - - -
24.05.2019 22:00:00 - - - - - - -
24.05.2019 21:00:00 - - - - - - -
24.05.2019 20:00:00 21,0 12,2 11 6 O 1012,1 16
24.05.2019 19:00:00 - - - - - - -
24.05.2019 18:00:00 - - - - - - -
24.05.2019 17:00:00 22,2 12,2 13 7 O 1012,9 16
24.05.2019 16:00:00 - - - - - - -
24.05.2019 15:00:00 - - - - - - -
24.05.2019 14:00:00 22,0 13,4 8 4 OSO 1014,4 13
24.05.2019 13:00:00 - - - - - - -
24.05.2019 12:00:00 - - - - - - -
24.05.2019 11:00:00 18,4 11,9 8 4 NE 1015,5 11
24.05.2019 10:00:00 - - - - - - -
24.05.2019 09:00:00 - - - - - - -
24.05.2019 08:00:00 12,4 12,1 0 0 N 1016,1 2,0
24.05.2019 07:00:00 - - - - - - -
24.05.2019 06:00:00 - - - - - - -
24.05.2019 05:00:00 - - - - - - -
24.05.2019 04:00:00 - - - - - - -
24.05.2019 03:00:00 - - - - - - -
24.05.2019 02:00:00 - - - - - - -
24.05.2019 01:00:00 - - - - - - -
24.05.2019 00:00:00 - - - - - - -
23.05.2019 23:00:00 - - - - - - -
23.05.2019 22:00:00 - - - - - - -
23.05.2019 21:00:00 - - - - - - -
23.05.2019 20:00:00 18,2 13,9 15 8 S 1015,0 14
23.05.2019 19:00:00 - - - - - - -
23.05.2019 18:00:00 - - - - - - -
23.05.2019 17:00:00 19,8 13,3 8 4 E 1015,4 11
23.05.2019 16:00:00 - - - - - - -
23.05.2019 15:00:00 - - - - - - -
23.05.2019 14:00:00 18,8 15,3 8 4 SO 1016,1 4,0
23.05.2019 13:00:00 - - - - - - -
23.05.2019 12:00:00 - - - - - - -
23.05.2019 11:00:00 18,2 11,5 0 0 N 1016,8 11
23.05.2019 10:00:00 - - - - - - -
23.05.2019 09:00:00 - - - - - - -
23.05.2019 08:00:00 14,4 12,4 0 0 N 1017,0 4,0
23.05.2019 07:00:00 - - - - - - -
23.05.2019 06:00:00 - - - - - - -
23.05.2019 05:00:00 - - - - - - -
23.05.2019 04:00:00 - - - - - - -
23.05.2019 03:00:00 - - - - - - -
23.05.2019 02:00:00 - - - - - - -
23.05.2019 01:00:00 - - - - - - -
23.05.2019 00:00:00 - - - - - - -
22.05.2019 23:00:00 - - - - - - -
22.05.2019 22:00:00 - - - - - - -
22.05.2019 21:00:00 - - - - - - -
22.05.2019 20:00:00 16,0 12,2 8 4 ONO 1015,2 14
22.05.2019 19:00:00 - - - - - - -
22.05.2019 18:00:00 - - - - - - -
22.05.2019 17:00:00 18,4 12,8 13 7 ONO 1015,0 14
22.05.2019 16:00:00 - - - - - - -
22.05.2019 15:00:00 - - - - - - -
22.05.2019 14:00:00 19,0 12,7 13 7 S 1015,8 15
22.05.2019 13:00:00 - - - - - - -
22.05.2019 12:00:00 - - - - - - -
22.05.2019 11:00:00 17,8 11,8 9 5 S 1015,6 15
22.05.2019 10:00:00 - - - - - - -
22.05.2019 09:00:00 - - - - - - -
22.05.2019 08:00:00 14,2 13,1 0 0 N 1015,6 14
22.05.2019 07:00:00 - - - - - - -
22.05.2019 06:00:00 - - - - - - -
22.05.2019 05:00:00 - - - - - - -
22.05.2019 04:00:00 - - - - - - -
22.05.2019 03:00:00 - - - - - - -
22.05.2019 02:00:00 - - - - - - -
22.05.2019 01:00:00 - - - - - - -
22.05.2019 00:00:00 - - - - - - -
21.05.2019 23:00:00 - - - - - - -
21.05.2019 22:00:00 - - - - - - -
21.05.2019 21:00:00 - - - - - - -
21.05.2019 20:00:00 16,0 14,4 13 7 SSE 1013,6 8
21.05.2019 19:00:00 - - - - - - -
21.05.2019 18:00:00 - - - - - - -
21.05.2019 17:00:00 19,0 12,3 5 3 SO 1013,2 16
21.05.2019 16:00:00 - - - - - - -
21.05.2019 15:00:00 - - - - - - -
21.05.2019 14:00:00 18,8 12,3 13 7 ONO 1012,0 14
21.05.2019 13:00:00 - - - - - - -
21.05.2019 12:00:00 - - - - - - -
21.05.2019 11:00:00 14,6 12,3 9 5 S 1011,5 8
21.05.2019 10:00:00 - - - - - - -
21.05.2019 09:00:00 - - - - - - -
21.05.2019 08:00:00 12,4 11,8 11 6 SSO 1010,6 3,0
21.05.2019 07:00:00 - - - - - - -
21.05.2019 06:00:00 - - - - - - -
21.05.2019 05:00:00 - - - - - - -
21.05.2019 04:00:00 - - - - - - -
21.05.2019 03:00:00 - - - - - - -
21.05.2019 02:00:00 - - - - - - -
21.05.2019 01:00:00 - - - - - - -
21.05.2019 00:00:00 - - - - - - -
20.05.2019 23:00:00 - - - - - - -
20.05.2019 22:00:00 - - - - - - -
20.05.2019 21:00:00 - - - - - - -
20.05.2019 20:00:00 15,4 10,6 11 6 SO 1008,5 16
20.05.2019 19:00:00 - - - - - - -
20.05.2019 18:00:00 - - - - - - -
20.05.2019 17:00:00 16,0 11,0 18 10 ONO 1007,6 16
20.05.2019 16:00:00 - - - - - - -
20.05.2019 15:00:00 - - - - - - -
20.05.2019 14:00:00 18,8 11,6 11 6 SSE 1007,5 16
20.05.2019 13:00:00 - - - - - - -
20.05.2019 12:00:00 - - - - - - -
20.05.2019 11:00:00 15,4 13,4 13 7 SSE 1007,9 7
20.05.2019 10:00:00 - - - - - - -
20.05.2019 09:00:00 - - - - - - -
20.05.2019 08:00:00 12,2 10,9 15 8 S 1009,5 8
20.05.2019 07:00:00 - - - - - - -
20.05.2019 06:00:00 - - - - - - -
20.05.2019 05:00:00 - - - - - - -
20.05.2019 04:00:00 - - - - - - -
20.05.2019 03:00:00 - - - - - - -
20.05.2019 02:00:00 - - - - - - -
20.05.2019 01:00:00 - - - - - - -
20.05.2019 00:00:00 - - - - - - -
19.05.2019 23:00:00 - - - - - - -
19.05.2019 22:00:00 - - - - - - -
19.05.2019 21:00:00 - - - - - - -
19.05.2019 20:00:00 14,2 12,2 4 2 O 1005,5 14
19.05.2019 19:00:00 - - - - - - -
19.05.2019 18:00:00 - - - - - - -
19.05.2019 17:00:00 14,4 13,4 0 0 N 1005,1 10
19.05.2019 16:00:00 - - - - - - -
19.05.2019 15:00:00 - - - - - - -
19.05.2019 14:00:00 14,2 12,9 8 4 S 1004,4 8
19.05.2019 13:00:00 - - - - - - -
19.05.2019 12:00:00 - - - - - - -
19.05.2019 11:00:00 13,4 11,8 16 9 SSO 1004,2 8
19.05.2019 10:00:00 - - - - - - -
19.05.2019 09:00:00 - - - - - - -
19.05.2019 08:00:00 14,0 13,2 0 0 N 1004,5 5

tt = Temperatura
td = dewpoint
ff = velocità del vento
dd = direzione del vento
ppp = reduced air pressure
vv = visibility

Stazioni seguenti

WeatherPro
AMSI
MeteoEarth